Minot AFB, ND

1:01 AM CDT on October 23, 2019 (GMT -0500)
Minot Air Force Base

Weather History for KMIB - August, 2019

Change the Weather History Date:

Saturday, August 17, 2019

  Actual Average Record
Temperature  
Mean Temperature 57 °F -  
Max Temperature 64 °F 79 °F 98 °F (1996)
Min Temperature 48 °F 53 °F 41 °F (2007)
Degree Days  
Heating Degree Days 8    
Growing Degree Days 7 (Base 50)    
Moisture  
Dew Point 50 °F    
Average Humidity 73    
Maximum Humidity 89    
Minimum Humidity 50    
Precipitation  
Precipitation 0.02 in - - ()
Sea Level Pressure  
Sea Level Pressure 29.77 in    
Wind  
Wind Speed 10 mph (WNW)    
Max Wind Speed 17 mph    
Max Gust Speed 22 mph    
Visibility 10 miles    
Events Rain    
Averages and records for this station are not official NWS values.
T = Trace of Precipitation, MM = Missing Value Source: NWS Daily Summary

Daily Weather History Graph

Daily Weather History Graph

Search for Another Location

Airport or City:

Astronomy

Aug. 17, 2019 Rise Set
Actual Time 6:41 AM CDT 8:56 PM CDT
Civil Twilight 6:07 AM CDT 9:30 PM CDT
Nautical Twilight 5:24 AM CDT 10:13 PM CDT
Astronomical Twilight 4:35 AM CDT 11:01 PM CDT
Moon 10:16 PM CDT (8/17) 8:37 AM CDT (8/17)
Length of Visible Light 15h 23m
Length of Day
14h 14m
Waning Gibbous, 96% of the Moon is Illuminated
Aug 17
Waning Gibbous
Aug 23
Last Quarter
Aug 30
New
Sep 5
First Quarter
Sep 13
Full

Hourly Weather History & Observations

Time (CDT) Temp. Dew Point Humidity Pressure Visibility Wind Dir Wind Speed Gust Speed Precip Events Conditions
12:56 AM 64.4 °F 58.1 °F 80% 29.70 in 10.0 mi NW 8.1 mph - N/A   Clear
1:56 AM 60.1 °F 56.8 °F 89% 29.70 in 10.0 mi NW 6.9 mph - N/A   Partly Cloudy
2:56 AM 62.2 °F 55.9 °F 80% 29.70 in 10.0 mi NW 10.4 mph - N/A   Scattered Clouds
3:56 AM 62.2 °F 54.5 °F 76% 29.70 in 10.0 mi NW 11.5 mph - N/A   Clear
4:56 AM 60.3 °F 54.3 °F 81% 29.72 in 10.0 mi NW 6.9 mph - N/A   Mostly Cloudy
5:34 AM 60.8 °F 53.6 °F 77% 29.70 in 10.0 mi NW 6.9 mph - N/A   Light Drizzle
5:46 AM 59.0 °F 55.4 °F 88% 29.70 in 10.0 mi NW 8.1 mph - N/A   Scattered Clouds
5:56 AM 59.2 °F 54.0 °F 83% 29.71 in 10.0 mi NW 9.2 mph - 0.00 in   Partly Cloudy
6:56 AM 58.3 °F 52.9 °F 82% 29.72 in 10.0 mi NW 6.9 mph - N/A   Mostly Cloudy
7:56 AM 58.6 °F 52.9 °F 81% 29.74 in 10.0 mi NW 10.4 mph - N/A   Partly Cloudy
8:56 AM 60.3 °F 48.9 °F 66% 29.74 in 10.0 mi NNW 17.3 mph - N/A   Partly Cloudy
9:56 AM 61.3 °F 50.7 °F 68% 29.77 in 10.0 mi NW 13.8 mph - N/A   Clear
10:31 AM 60.8 °F 50.0 °F 68% 29.81 in 10.0 mi WNW 16.1 mph - N/A   Mostly Cloudy
10:36 AM 59.0 °F 50.0 °F 72% 29.80 in 10.0 mi NW 16.1 mph - N/A   Mostly Cloudy
10:55 AM 59.0 °F 48.2 °F 67% 29.81 in 10.0 mi WNW 11.5 mph 20.7 mph N/A   Light Drizzle
10:56 AM 59.0 °F 48.4 °F 68% 29.81 in 10.0 mi WNW 11.5 mph 20.7 mph N/A   Light Drizzle
11:41 AM 55.4 °F 51.8 °F 88% 29.81 in 10.0 mi NW 5.8 mph - N/A Rain Light Rain
11:56 AM 55.0 °F 50.9 °F 86% 29.81 in 10.0 mi Calm Calm - 0.01 in Rain Light Rain
12:38 PM 55.4 °F 51.8 °F 88% 29.81 in 10.0 mi WNW 8.1 mph - N/A   Clear
12:56 PM 55.6 °F 51.1 °F 85% 29.81 in 10.0 mi WNW 6.9 mph - 0.01 in   Clear
1:56 PM 57.6 °F 48.9 °F 73% 29.81 in 10.0 mi West 6.9 mph - N/A   Scattered Clouds
2:56 PM 59.7 °F 48.7 °F 67% 29.80 in 10.0 mi WNW 10.4 mph - N/A   Scattered Clouds
3:56 PM 64.2 °F 47.7 °F 55% 29.78 in 10.0 mi NW 11.5 mph - N/A   Scattered Clouds
4:56 PM 63.9 °F 45.3 °F 51% 29.78 in 10.0 mi WNW 15.0 mph 21.9 mph N/A   Overcast
5:56 PM 63.5 °F 44.6 °F 50% 29.76 in 10.0 mi West 15.0 mph - N/A   Scattered Clouds
6:56 PM 62.8 °F 46.4 °F 55% 29.78 in 10.0 mi West 12.7 mph - N/A   Scattered Clouds
7:56 PM 61.9 °F 45.5 °F 55% 29.77 in 10.0 mi NW 15.0 mph - N/A   Clear
8:56 PM 56.8 °F 42.6 °F 59% 29.78 in 10.0 mi WNW 8.1 mph - N/A   Clear
9:56 PM 51.6 °F 43.5 °F 74% 29.79 in 10.0 mi West 5.8 mph - N/A   Clear
10:56 PM 50.0 °F 43.3 °F 78% 29.80 in 10.0 mi West 10.4 mph - N/A   Clear
11:56 PM 48.9 °F 43.7 °F 82% 29.81 in 10.0 mi WSW 6.9 mph - N/A   Clear